Погода в Ужгороде

Погода в Ужгороде : погода сейчас, прогноз погоды и архив. Всё, что Вы хотите узнать о погоде в Ужгороде!

Поиск расширенной информации на нашем сайте:

Другие новости

Новости СМИ2

Главная страница сайта

Новости сайта

03.07.2017

Напоминаем, что на нашем специализированном сайте Метеоцентр.Азия вы можете получить высокодетализированные автоматические прогнозы погоды по пунктам России, СНГ и мира в авиационном формате (включающие направление и скорость ветра, видимость, явления погоды, количество и форму облачности, нижнюю и верхнюю границу облачности).

Рекомендуем: Новые правила по торговле ИП пивом в 2017 году

Погода в Ужгороде - сегодня

Время (UTC), дата Ветер
(°,м/с) 
Видим.   Явления Облачность Т
(°С)
Тd
(°С)
f(%) Тe
(°С)
Pmin
(гПа)
dP
(гПа)
Po
(мм)
O2
(г/м3)
Тmin Tmax R s Состояние
почвы
09 17.06.18 050 (СВ) 20000 м    8/0 средняя, верхняя 
[Ac trans|Ci fib]
+24.6 +13.3 49 +30  1012.8  0.3  749  274           
12 17.06.18 050 (СВ) 20000 м    8/3 1000 м верхняя 
[Cu hum|Ci fib]
+25.8 +13.1 45 +31  1012.2  -0.5  749  273           
15 17.06.18 050 (СВ) 20000 м    8/0 средняя, верхняя 
[Ac trans|Ci fib]
+24.6 +13.7 51 +31  1011.8  -0.5  749  274           
18 17.06.18 040 (СВ) 20000 м    8/8 1300 м 
[Sc]
+22.1 +13 56 +28  1012.2  0.3  749  277    +26.5       
21 17.06.18 тихо ()   10 км    6/0 средняя 
[Ac trans]
+20.1 +13.2 64 +26  1012.2  -0.1  749  278           
00 18.06.18 тихо ()   10 км    8/0 средняя 
[Ac trans]
+18.6 +14.1 75 +26  1012  -0.3  749  280           
03 18.06.18 тихо ()   10 км    8/8 1500 м 
[Sc]
+17.5 +15.3 87 +27  1011.7  -0.3  748  280           
06 18.06.18 070 (В) 20000 м    8/8 1500 м 
[Sc]
+20.6 +14.4 68 +28  1012.2  0.6  749  278  +17.4         
09 18.06.18 тихо ()   20000 м    10/10 1260 м 
[Sc]
+21.5 +16 71 +32  1013.1  1.3  750  277           
12 18.06.18 010 (С) 10 км  {дождь}  10/10 1300 м 
[Sc]
+23.2 +16.9 68 +35  1013.6  0.3  750  275      0.0     
15 18.06.18 тихо ()   20000 м    8/6 1080 м кучево-дожд., средняя 
[Cb calv|Ac trans]
+25.1 +16.5 59 +36  1013.2  -0.3  750  273           
18 18.06.18 310 (СЗ) 20000 м    9/9 1500 м 
[Sc]
+22.2 +17.9 77 +36  1014.2  0.8  750  276    +2.6  0.0     
21 18.06.18 280 (З) 10 км    9/0 средняя 
[Ac trans]
+20 +17.7 87 +34  1015.7  1.4  751  278           
00 19.06.18 тихо ()   10 км    9/0 средняя 
[Ac trans]
+19 +17.5 91 +32  1016.5  0.5  752  279           
03 19.06.18 тихо ()   10 км    8/0 средняя 
[Ac trans]
+17.8 +16.8 94 +30  1016.9  0.6  752  281           
06 19.06.18 тихо ()   10 км    6/0 средняя 
[Ac trans]
+22.8 +18 74 +37  1017.7  753  276  +17.6         
09 19.06.18 300 (СЗ) 10 км    6/3 1000 м средняя 
[Cu med, cong|Ac trans]
+27 +16.7 53 +39  1018.1  0.6  753  273           
12 19.06.18 тихо ()   10 км  гроза, ливневой дождь  8/8 1200 м кучево-дожд. 
[Cb cap]
+20.3 +18.4 89 +35  1018.5  0.1  754  278         
15 19.06.18 340 (С) 10 км  {гроза, ливн. осадки}  4/1 1500 м средняя 
[Cu med, cong|Ac trans]
+27.6 +16.4 50 +39  1017.3  -0.9  753  272           
18 19.06.18 330 (СЗ) 10 км  {гроза, ливн. осадки}  3/0 средняя 
[Ac trans]
+25.3 +18.9 68 +41  1017.9  0.5  753  273    +28.9     
21 19.06.18 350 (С) 10 км    4/0 верхняя 
[Ci fib]
+21.2 +17.8 81 +35  1019.3  1.3  754  278           
00 20.06.18 тихо ()   10 км    ясно 
+19.4 +16 81 +30  1020.5  0.8  755  281           
03 20.06.18 тихо ()   10 км    3/0 верхняя 
[Ci fib]
+16.4 +14.7 90 +24  1020.9  0.5  755  284           
06 20.06.18 050 (СВ) 10 км    5/0 средняя 
[Ac trans]
+24.2 +15.1 57 +33  1021.1  0.5  756  277  +16         
09 20.06.18 020 (С) 10 км    3/0 средняя 
[Ac trans]
+27.3 +15.1 47 +36  1021.1  0.2  756  274           
Время (UTC), дата Ветер
(°,м/с) 
Видим.   Явления Облачность Т
(°С)
Тd
(°С)
f(%) Тe
(°С)
Pmin
(гПа)
dP
(гПа)
Po
(мм)
O2
(г/м3)
Тmin Tmax R s Состояние
почвы

Для получения пояснительной информации подведите курсор к названию столбца.

ПОГОДА в Ужгороде - архив

Всё, что Вы хотите узнать о погоде в Ужгороде - удобно и подробно!

Выберите нужную дату (начиная с 1 января 2015* года) и нажмите кнопку "Найти".
Будут отображены архивные сводки погоды по пункту Ужгород, начиная с указанной даты.


Отображать данные в формате CSV (для использования в таблицах Excel)


Внимание! Наш архив погоды предназначен исключительно для личного некоммерческого использования в познавательных целях. Если Вам необходимы официальные справки о состоянии погоды (для производственных, юридических, коммерческих и т.п. целей), обращайтесь в органы Росгидромета.

*Примечание: данная дата относится к архиву по метеостанциям СССР (Россия, СНГ, Балтия).
Архив по метеостанциям Зарубежной Европы и Азии (кроме Китая) хранится 10 дней, по другим регионам земного шара (Китай, Африка, Америка, Австралия, Океания) - 1 день.

Ужгород - район местоположения метеостанции


Название, широта, долгота, высота метеостанции:
Ужгород 48.6°ш. 22.3°д. 124 м над ур. моря [Украина]

Дополнительная информация

В oтличие oт бoльшинства пoгoдных сайтoв мы публикуем пoдрoбную метеoинфoрмацию в детальнoм прoфессиoнальнoм фoрмате.

Характеристики температуры и влажнoсти вoздуха измеряются на высoте 2 м в тени вдали oт зданий и деревьев.
Скoрoсть ветра измеряется на высoте 10 м (на урoвне рoста челoвека скoрoсть ветра ниже в 1.5-2 раза). Если метеoстанция нахoдится в гoрoде или в лесу, тo скoрoсть ветра занижена на 2-4 м/с пo сравнению с oткрытым местoм. Скoрoсть ветра над акватoриями крупных рек и oзёр, а также на вершинах хoлмoв на 2-5 м/с выше, чем в oбычных услoвиях.
Атмoсфернoе давление в разных тoчках местнoсти мoжет значительнo oтличаться oт давления на метеoстанции, в зависимoсти oт услoвий рельефа (при пoдъёме на 10 м давление пoнижается примернo на 1 мм рт.ст.).